EW3000 Weather Reports


time (UTC)temp
C
wind
direction
speed
KPH
gust
KPH
rain 1hr
cm
rain 24hr
cm
rain mn
cm
humidity
%
barometer
mb
20260504231911 -17 0.0 0.0 0.00 0.00 0.00 1009.6
20260504231336 -17 0.0 0.0 0.00 0.00 0.00 1009.7
20260504230848 -17 0.0 0.0 0.00 0.00 0.00 1009.7
20260504230343 -17 0.0 0.0 0.00 0.00 0.00 1009.7
20260504225848 -17 0.0 0.0 0.00 0.00 0.00 1009.6
20260504225357 -17 0.0 0.0 0.00 0.00 0.00 1009.7
20260504224843 -17 0.0 0.0 0.00 0.00 0.00 1009.8
20260504224351 -17 0.0 0.0 0.00 0.00 0.00 1009.8
20260504223920 -17 0.0 0.0 0.00 0.00 0.00 1009.7
20260504223345 -17 0.0 0.0 0.00 0.00 0.00 1009.7
20260504222853 -17 0.0 0.0 0.00 0.00 0.00 1009.7
20260504222340 23 5 8.0 16.1 0.00 0.00 0.00 37 1009.7
20260504221854 23 5 8.0 16.1 0.00 0.00 0.00 37 1009.7
20260504221403 23 5 6.4 19.3 0.00 0.00 0.00 36 1009.7
20260504220912 23 5 4.8 19.3 0.00 0.00 0.00 36 1009.7
20260504220357 24 5 1.6 14.5 0.00 0.00 0.00 36 1009.6
20260504215900 24 5 6.4 17.7 0.00 0.00 0.00 36 1009.7
20260504215405 24 5 6.4 17.7 0.00 0.00 0.00 35 1009.8
20260504214910 24 5 8.0 14.5 0.00 0.00 0.00 35 1009.8
20260504214357 24 5 4.8 14.5 0.00 0.00 0.00 36 1009.7
20260504213905 24 5 4.8 22.5 0.00 0.00 0.00 35 1009.7
20260504213353 24 5 9.7 24.1 0.00 0.00 0.00 35 1009.7
20260504212858 25 5 9.7 24.1 0.00 0.00 0.00 34 1009.7
20260504212423 24 5 3.2 16.1 0.00 0.00 0.00 35 1009.7
20260504211848 24 5 6.4 25.7 0.00 0.00 0.00 34 1009.7
20260504211357 24 5 6.4 25.7 0.00 0.00 0.00 33 1009.7
20260504210843 25 5 6.4 14.5 0.00 0.00 0.00 34 1009.7
20260504210349 25 5 3.2 14.5 0.00 0.00 0.00 34 1009.7
20260504205853 24 5 4.8 14.5 0.00 0.00 0.00 34 1009.7
20260504205338 24 5 6.4 22.5 0.00 0.00 0.00 35 1009.8
20260504204851 23 5 6.4 19.3 0.00 0.00 0.00 35 1009.8
20260504204341 23 5 4.8 19.3 0.00 0.00 0.00 35 1009.8
20260504203852 23 5 4.8 24.1 0.00 0.00 0.00 35 1009.8
20260504203402 24 5 9.7 24.1 0.00 0.00 0.00 34 1009.9
20260504202848 24 5 4.8 22.5 0.00 0.00 0.00 34 1010.0
20260504202341 24 5 4.8 17.7 0.00 0.00 0.00 34 1010.0
20260504201912 24 5 6.4 17.7 0.00 0.00 0.00 33 1010.0
20260504201403 24 5 4.8 17.7 0.00 0.00 0.00 35 1010.1
20260504200851 24 5 6.4 16.1 0.00 0.00 0.00 34 1010.1
20260504200342 24 5 3.2 16.1 0.00 0.00 0.00 34 1010.2
20260504195849 24 5 4.8 14.5 0.00 0.00 0.00 35 1010.3
20260504195342 24 5 6.4 19.3 0.00 0.00 0.00 35 1010.4
20260504194855 23 5 8.0 20.9 0.00 0.00 0.00 35 1010.5
20260504194347 23 5 6.4 20.9 0.00 0.00 0.00 35 1010.6
20260504193918 23 5 4.8 16.1 0.00 0.00 0.00 35 1010.7
20260504193347 23 5 3.2 20.9 0.00 0.00 0.00 37 1010.8
20260504192912 22 5 6.4 24.1 0.00 0.00 0.00 36 1010.9
20260504192342 22 5 4.8 25.7 0.00 0.00 0.00 36 1010.9
20260504191849 23 5 6.4 24.1 0.00 0.00 0.00 36 1010.8
20260504191340 23 5 11.3 24.1 0.00 0.00 0.00 35 1011.1
20260504190850 23 5 9.7 17.7 0.00 0.00 0.00 35 1011.1
20260504190357 23 5 4.8 27.4 0.00 0.00 0.00 37 1011.2
20260504185839 23 5 12.9 27.4 0.00 0.00 0.00 35 1011.4
20260504185347 23 5 3.2 25.7 0.00 0.00 0.00 36 1011.3
20260504184916 23 5 9.7 25.7 0.00 0.00 0.00 36 1011.4
20260504184346 23 5 8.0 17.7 0.00 0.00 0.00 37 1011.4
20260504183855 23 5 6.4 25.7 0.00 0.00 0.00 36 1011.5
20260504183407 23 5 9.7 19.3 0.00 0.00 0.00 36 1011.6
20260504182854 22 5 6.4 19.3 0.00 0.00 0.00 37 1011.6
20260504182344 22 5 3.2 20.9 0.00 0.00 0.00 37 1011.7
20260504181852 22 5 6.4 20.9 0.00 0.00 0.00 38 1011.7
20260504181346 22 5 3.2 17.7 0.00 0.00 0.00 37 1011.8
20260504180858 22 5 9.7 19.3 0.00 0.00 0.00 38 1011.8
20260504180406 22 5 9.7 19.3 0.00 0.00 0.00 38 1012.0
20260504175849 22 5 8.0 20.9 0.00 0.00 0.00 36 1011.9
20260504175337 22 5 4.8 20.9 0.00 0.00 0.00 37 1012.0
20260504174848 22 5 3.2 14.5 0.00 0.00 0.00 38 1012.0
20260504174359 21 5 3.2 17.7 0.00 0.00 0.00 40 1012.1
20260504173843 21 5 8.0 17.7 0.00 0.00 0.00 38 1012.1
20260504173353 21 5 4.8 16.1 0.00 0.00 0.00 37 1012.2
20260504172856 21 5 6.4 16.1 0.00 0.00 0.00 38 1012.3
20260504172343 21 5 3.2 16.1 0.00 0.00 0.00 38 1012.4
20260504171855 21 5 6.4 16.1 0.00 0.00 0.00 38 1012.5
20260504171342 21 5 8.0 16.1 0.00 0.00 0.00 38 1012.6
20260504170849 21 5 4.8 16.1 0.00 0.00 0.00 38 1012.6
20260504170402 21 5 8.0 16.1 0.00 0.00 0.00 38 1012.8
20260504160353 19 5 4.8 14.5 0.00 0.00 0.00 41 1013.5
20260504150846 18 5 0.0 16.1 0.00 0.00 0.00 41 1014.0
20260504150353 18 5 4.8 16.1 0.00 0.00 0.00 40 1014.1
20260504140850 16 5 8.0 17.7 0.00 0.00 0.00 45 1014.4
20260504140344 16 5 3.2 11.3 0.00 0.00 0.00 50 1014.4
20260504130343 13 5 0.0 11.3 0.00 0.00 0.00 52 1014.6
20260504110350 -17 0.0 0.0 0.00 0.00 0.00 1014.8
20260504100339 -17 0.0 0.0 0.00 0.00 0.00 1014.9
20260504081838 -17 0.0 0.0 0.00 0.00 0.00 1015.4
20260504081352 -17 0.0 0.0 0.00 0.00 0.00 1015.3
20260504080845 -17 0.0 0.0 0.00 0.00 0.00 1015.3
20260504080340 -17 0.0 0.0 0.00 0.00 0.00 1015.3
20260504070343 -17 0.0 0.0 0.00 0.00 0.00 1015.4
20260504050343 -17 0.0 0.0 0.00 0.00 0.00 1015.5
20260504045850 -17 0.0 0.0 0.00 0.00 0.00 1015.6
20260504045341 -17 0.0 0.0 0.00 0.00 0.00 1015.6
20260504044854 -17 0.0 0.0 0.00 0.00 0.00 1015.5
20260504044408 -17 0.0 0.0 0.00 0.00 0.00 1015.6
20260504043841 -17 0.0 0.0 0.00 0.00 0.00 1015.5
20260504043354 -17 0.0 0.0 0.00 0.00 0.00 1015.5
20260504042920 -17 0.0 0.0 0.00 0.00 0.00 1015.5
20260504042348 -17 0.0 0.0 0.00 0.00 0.00 1015.5
20260504041858 -17 0.0 0.0 0.00 0.00 0.00 1015.4
20260504041347 -17 0.0 0.0 0.00 0.00 0.00 1015.4
20260504040839 -17 0.0 0.0 0.00 0.00 0.00 1015.3
20260504040350 -17 0.0 0.0 0.00 0.00 0.00 1015.3
20260504035839 -17 0.0 0.0 0.00 0.00 0.00 1015.3
20260504035351 -17 0.0 0.0 0.00 0.00 0.00 1015.3
20260504034844 -17 0.0 0.0 0.00 0.00 0.00 1015.2
20260504034338 -17 0.0 0.0 0.00 0.00 0.00 1015.2
20260504033849 -17 0.0 0.0 0.00 0.00 0.00 1015.2
20260504033359 -17 0.0 0.0 0.00 0.00 0.00 1015.2
20260504032844 -17 0.0 0.0 0.00 0.00 0.00 1015.2
20260504032351 -17 0.0 0.0 0.00 0.00 0.00 1015.2
20260504031842 -17 0.0 0.0 0.00 0.00 0.00 1015.2
20260504031351 -17 0.0 0.0 0.00 0.00 0.00 1015.1
20260504030843 -17 0.0 0.0 0.00 0.00 0.00 1015.0
20260504030355 -17 0.0 0.0 0.00 0.00 0.00 1015.0
20260504025844 -17 0.0 0.0 0.00 0.00 0.00 1015.0
20260504025417 -17 0.0 0.0 0.00 0.00 0.00 1015.0
20260504024846 -17 0.0 0.0 0.00 0.00 0.00 1014.9
20260504024356 -17 0.0 0.0 0.00 0.00 0.00 1014.9
20260504023846 -17 0.0 0.0 0.00 0.00 0.00 1014.9
20260504023417 -17 0.0 0.0 0.00 0.00 0.00 1014.9
20260504022843 -17 0.0 0.0 0.00 0.00 0.00 1015.0
20260504022351 -17 0.0 0.0 0.00 0.00 0.00 1014.9
20260504021842 -17 0.0 0.0 0.00 0.00 0.00 1015.0
20260504021352 -17 0.0 0.0 0.00 0.00 0.00 1015.0
20260504020843 -17 0.0 0.0 0.00 0.00 0.00 1015.0
20260504020356 -17 0.0 0.0 0.00 0.00 0.00 1015.0
20260504015838 -17 0.0 0.0 0.00 0.00 0.00 1015.0
20260504015408 -17 0.0 0.0 0.00 0.00 0.00 1014.9
20260504014839 -17 0.0 0.0 0.00 0.00 0.00 1014.9
20260504014349 -17 0.0 0.0 0.00 0.00 0.00 1014.8
20260504013856 -17 0.0 0.0 0.00 0.00 0.00 1014.8
20260504013346 -17 0.0 0.0 0.00 0.00 0.00 1014.7
20260504012835 -17 0.0 0.0 0.00 0.00 0.00 1014.7
20260504012349 -17 0.0 0.0 0.00 0.00 0.00 1014.7
20260504011842 -17 0.0 0.0 0.00 0.00 0.00 1014.7
20260504011353 -17 0.0 0.0 0.00 0.00 0.00 1014.6
20260504010845 -17 0.0 0.0 0.00 0.00 0.00 1014.5
20260504010417 -17 0.0 0.0 0.00 0.00 0.00 1014.5
20260504005844 -17 0.0 0.0 0.00 0.00 0.00 1014.6
20260504005414 -17 0.0 0.0 0.00 0.00 0.00 1014.5
20260504004843 -17 0.0 0.0 0.00 0.00 0.00 1014.5
20260504004414 -17 0.0 0.0 0.00 0.00 0.00 1014.4
20260504003846 -17 0.0 0.0 0.00 0.00 0.00 1014.4
20260504003342 -17 0.0 0.0 0.00 0.00 0.00 1014.3
20260504002848 -17 0.0 0.0 0.00 0.00 0.00 1014.3
20260504002354 -17 0.0 0.0 0.00 0.00 0.00 1014.2
20260504001841 -17 0.0 0.0 0.00 0.00 0.00 1014.2
20260504001349 -17 0.0 0.0 0.00 0.00 0.00 1014.1
20260504000857 -17 0.0 0.0 0.00 0.00 0.00 1014.1
20260504000349 -17 0.0 0.0 0.00 0.00 0.00 1014.0
20260503235854 -17 0.0 0.0 0.00 0.00 0.00 1013.9
20260503235405 -17 0.0 0.0 0.00 0.00 0.00 1013.9
20260503234850 -17 0.0 0.0 0.00 0.00 0.00 1013.9
20260503234359 -17 0.0 0.0 0.00 0.00 0.00 1013.8
20260503233847 -17 0.0 0.0 0.00 0.00 0.00 1013.7
20260503233401 -17 0.0 0.0 0.00 0.00 0.00 1013.8
20260503232921 -17 0.0 0.0 0.00 0.00 0.00 1013.7
20260503232346 -17 0.0 0.0 0.00 0.00 0.00 1013.7